#timestamp,LO_Frequency,Hit,StdDev 
1456952415.1,286046995.0,N
1456952435.8,286046995.8,N
1456952455.7,286046996.7,N
1456952475.5,286046998.3,N
1456952495.3,286046998.8,N
1456952515.2,286047002.7,N
1456952535.9,286047001.9,N
1456952555.7,286046999.9,N
1456952575.6,286047002.5,N
1456952595.4,286047004.4,N
1456952615.2,286047000.3,N
1456952635.1,286046999.7,N
1456952636.0,286046999.7,N
1456952655.8,286047002.8,N
1456952675.6,286047000.9,N
1456952695.5,286046998.6,N
1456952715.3,286047002.2,N
1456952735.1,286047005.8,N
1456952755.8,286047004.2,N
1456952775.7,286047002.5,N
1456952795.5,286047002.1,N
1456952815.3,286047002.2,N
1456952835.2,286047003.1,N
1456952855.9,286047006.3,N
1456952875.7,286047006.2,N
1456952895.6,286047006.7,N
1456952915.4,286047003.3,N
1456952935.2,286047001.8,N
1456952955.1,286047000.3,N
1456952956.0,286047000.3,N
1456952975.8,286047000.7,N
1456952995.6,286047001.5,N
1456953015.5,286047000.0,N
1456953035.3,286046999.6,N
1456953055.1,286046997.0,N
1456953075.9,286046999.0,N
1456953095.7,286046998.1,N
1456953115.5,286047001.6,N
1456953135.3,286047005.8,N
1456953155.2,286047002.6,N
1456953175.0,286047000.0,N
1456953175.9,286047000.0,N
1456953195.7,286046999.8,N
1456953215.6,286046996.6,N
1456953235.4,286046997.2,N
1456953255.2,286046995.3,N
1456953275.1,286046995.2,N
1456953276.0,286046995.2,N
1456953295.8,286046996.9,N
1456953315.6,286046996.7,N
1456953335.5,286046994.3,N
1456953355.3,286046991.7,N
1456953375.1,286046994.1,N
1456953395.9,286046991.9,N
1456953415.7,286046992.5,N
1456953435.5,286046994.3,N
1456953455.4,286046994.8,N
1456953475.2,286046988.9,Y
1456953495.0,286046990.5,P
1456953495.9,286046990.5,N
1456953515.8,286046989.0,P
1456953535.6,286046988.5,Y
1456953555.4,286046998.0,P
1456953575.3,286046995.5,N
1456953595.1,286046997.2,N
1456953596.0,286046997.2,N
1456953615.8,286046998.1,N
1456953635.7,286046996.5,N
1456953655.5,286046997.4,N
1456953675.3,286046996.5,N
1456953695.1,286047000.9,N
1456953715.9,286047002.3,N
1456953735.7,286047002.3,N
1456953755.5,286047000.9,N
1456953775.4,286047002.4,N
1456953795.2,286047004.4,N
1456953815.0,286047001.9,N
1456953815.9,286047001.9,N
1456953835.8,286047001.3,N
1456953855.6,286047002.5,N
1456953875.4,286047000.8,N
1456953895.3,286047002.2,N
1456953915.1,286047002.3,N
1456953916.0,286047002.3,N
1456953935.8,286047004.1,N
1456953955.6,286047002.1,N
1456953975.5,286047002.4,N
1456953995.3,286047004.4,N
1456954015.1,286047005.7,N
1456954035.9,286047005.6,N
1456954055.7,286047005.4,N
1456954075.5,286047007.5,N
1456954095.4,286047010.3,Y
1456954115.2,286047008.3,P
1456954135.0,286047012.4,P
1456954135.9,286047012.4,N
1456954155.8,286047009.9,N
1456954175.6,286047012.6,Y
1456954195.4,286047004.8,P
1456954215.3,286047003.6,N
1456954235.1,286047003.6,N
1456954255.8,286047002.3,N
1456954275.7,286047001.7,N
1456954295.5,286047001.7,N
1456954315.3,286046999.8,N
1456954335.2,286047003.4,N
1456954355.9,286047002.2,N
1456954375.7,286046998.9,N
1456954395.6,286046997.8,N
1456954415.4,286046999.2,N
1456954435.2,286046999.6,N
1456954455.0,286046998.4,N
1456954456.0,286046998.4,N
1456954475.8,286047003.2,N
1456954495.6,286047005.8,N
1456954515.4,286047008.2,N
1456954535.3,286047007.9,N
1456954555.1,286047010.8,Y
1456954575.8,286047013.9,P
1456954595.7,286047013.1,N
1456954615.5,286047012.1,N
1456954635.3,286047011.2,N
1456954655.2,286047012.8,Y
1456954675.0,286047003.4,P
1456954675.9,286047003.4,N
1456954695.7,286047001.3,N
1456954715.6,286047004.0,N
1456954735.4,286047004.1,N
1456954755.2,286047001.9,N
1456954775.1,286047005.5,N
1456954776.0,286047005.5,N
1456954795.8,286047006.6,N
1456954815.6,286047005.8,N
1456954835.5,286047003.2,N
1456954855.3,286047003.8,N
1456954875.1,286047004.1,N
1456954895.9,286047007.4,Y
1456954915.7,286047005.0,P
1456954935.5,286047005.3,P
1456954955.4,286047006.9,P
1456954975.2,286047009.2,Y
1456954995.0,286047000.2,P
1456954995.9,286047000.2,N
1456955015.8,286047000.4,N
1456955035.6,286047003.1,N
1456955055.4,286047004.2,N
1456955075.3,286047004.0,N
1456955095.1,286047007.6,Y
1456955096.0,286047007.6,P
1456955115.8,286047002.9,N
1456955135.7,286047004.1,N
1456955155.5,286047003.2,N
1456955175.3,286047003.4,N
1456955195.2,286047005.6,Y
1456955215.9,286047000.1,P
1456955235.7,286047000.6,N
1456955255.6,286046996.8,N
1456955275.4,286046998.0,N
1456955295.2,286046996.3,N
1456955315.1,286046994.7,N
1456955316.0,286046994.7,N
1456955335.8,286046992.5,N
1456955355.6,286046994.4,N
1456955375.4,286046996.6,N
1456955395.3,286047001.1,N
1456955415.1,286047000.9,N
1456955435.8,286047000.6,N
1456955455.7,286046998.2,N
1456955475.5,286046995.5,N
1456955495.3,286046996.2,N
1456955515.2,286046994.0,N
1456955535.9,286046995.8,N
1456955555.7,286046993.4,N
1456955575.6,286046997.6,N
1456955595.4,286046996.4,N
1456955615.2,286046993.6,N
1456955635.0,286046993.5,N
1456955636.0,286046993.5,N
1456955655.8,286046993.3,N
1456955675.6,286046992.2,N
1456955695.4,286046994.4,N
1456955715.3,286046992.6,N
1456955735.1,286046988.9,Y
1456955755.8,286046993.9,P
1456955775.7,286046994.6,P
1456955795.5,286046992.3,P
1456955815.3,286046992.5,Y
1456955835.2,286046996.4,P
1456955855.0,286046994.7,P
1456955855.9,286046994.7,P
1456955875.8,286046994.1,Y
1456955895.6,286046997.0,P
1456955915.4,286047000.0,N
1456955935.2,286047000.4,N
1456955955.1,286046998.5,N
1456955956.0,286046998.5,N
1456955975.8,286046997.6,N
1456955995.6,286046995.9,N
